User: anonymous   Login
Location: Buttermere
(51.3333°N, 1.5167°W)
Time: 01:44:43
(UTC+00:00)
Language:

Meteor 2-11 Rocket - Orbit

View from above orbital plane
View from above orbital plane
View from above satellite
View from above satellite

Ground track
Ground track

The orbit data is extracted from the following two-line orbital elements,

1 15100U 84072B   20334.61509210 +.00000038 +00000-0 +20572-4 0  9995
2 15100 082.5319 218.3937 0012924 049.1562 311.0717 13.84445515839229
Epoch (UTC): 29 November 2020 14:45:43
Eccentricity: 0.0012924
inclination: 82.5319°
perigee height: 938 km
apogee height: 957 km
right ascension of ascending node: 218.3937°
argument of perigee: 49.1562°
revolutions per day: 13.84445515
mean anomaly at epoch: 311.0717°
orbit number at epoch: 83922

The dashed part of the orbit path shows where the satellite is in the earth's shadow,  

DLR